Wind_Speed
62 62 62 60 61 63 63 65 65 67 65 64 61 58 58 54 50 47 45 40 37 39 41 40 42 46 47 40 46 49 50 52 50 45 38 48 55 53 59 58 65 70 71
63 64 62 62 60 61 62 64 65 65 64 63 60 58 56 52 45 45 43 39 38 38 35 29 28 31 37 39 35 28 29 39 46 47 38 40 50 50 56 55 58 62 60
68 65 64 62 61 62 63 63 63 61 61 59 57 56 53 48 44 40 40 37 33 36 37 38 34 29 32 28 23 25 26 30 41 43 40 40 40 45 51 51 52 54 54
70 66 64 62 61 62 62 59 58 55 56 52 54 51 49 44 42 36 36 35 31 33 36 38 36 32 32 32 35 26 33 30 30 35 39 48 46 50 54 56 52 53 51
68 66 62 61 58 57 56 53 51 48 50 47 47 45 43 40 38 36 32 32 32 33 39 39 39 35 35 34 39 30 34 33 24 30 34 34 37 37 41 44 43 46 50
70 66 62 58 56 53 49 48 46 44 44 43 41 41 39 39 34 35 33 33 32 32 42 43 41 36 37 33 34 30 43 40 35 31 33 33 36 39 26 28 20 26 30
65 60 56 53 51 48 47 46 42 40 40 39 37 34 31 32 32 32 33 31 31 32 39 47 47 41 40 40 44 40 43 43 41 32 32 28 24 24 24 26 29 29 30
56 50 48 48 47 45 42 41 40 39 37 35 33 30 29 30 30 32 34 31 28 29 34 47 49 50 43 46 45 45 37 33 41 37 33 30 29 31 30 30 31 38 38
54 42 49 48 48 44 40 39 39 38 36 34 31 28 26 28 29 32 35 33 32 27 32 37 48 52 52 46 45 45 40 36 37 36 36 36 32 35 38 38 42 43 42
52 46 50 52 51 45 43 39 40 38 36 32 28 28 26 27 31 32 35 36 34 32 29 32 40 47 55 57 54 50 49 45 41 42 41 39 42 39 43 46 48 46 45
57 53 50 54 53 48 46 42 39 38 37 32 30 30 27 28 33 31 33 37 36 32 29 29 36 38 44 53 61 55 55 50 49 53 54 50 47 48 47 49 47 48 49
56 60 49 55 54 53 50 46 42 39 39 36 33 32 29 30 31 32 31 34 33 32 31 27 34 37 38 44 43 54 53 55 57 58 59 55 51 52 50 51 52 46 45
56 66 52 54 56 55 52 50 43 43 41 37 34 35 33 31 31 31 30 32 30 28 30 28 28 34 33 33 36 41 43 52 53 56 57 58 58 58 55 49 45 51 38
57 63 55 55 58 56 55 53 46 41 40 39 38 38 39 32 31 31 27 32 30 29 29 28 26 30 31 30 29 33 35 30 36 40 46 47 45 41 39 37 42 36 31
61 63 65 59 60 58 56 54 50 44 43 44 43 44 39 33 30 29 29 32 30 27 29 28 26 27 30 27 25 31 30 27 27 28 28 31 34 32 33 33 34 33 31
66 65 67 66 62 59 58 57 55 51 45 42 42 38 36 36 30 31 31 30 34 29 29 28 28 25 29 29 24 28 29 26 27 25 22 29 26 30 29 33 37 33 30
69 74 69 72 66 63 61 59 59 55 47 40 43 40 37 40 36 32 33 34 34 32 27 28 29 26 27 30 28 27 30 32 33 30 31 22 20 20 27 33 33 32 30
74 75 77 74 72 66 64 61 59 57 49 41 42 38 39 42 42 36 36 35 34 35 33 27 29 30 24 28 29 30 30 25 31 28 28 20 24 22 30 31 31 27 26
76 78 77 77 73 70 68 62 60 57 51 48 45 46 44 45 46 40 36 35 36 36 35 30 30 29 26 27 30 28 31 29 27 29 32 25 24 24 27 28 24 24 25
82 79 78 76 75 71 69 62 61 56 52 54 51 46 48 50 50 44 38 38 38 38 37 37 33 32 28 26 32 31 31 29 30 33 33 30 25 26 26 26 25 23 20
83 81 77 76 74 72 67 64 62 60 56 54 52 50 52 53 51 45 40 40 40 38 39 39 40 35 33 30 32 34 30 28 32 32 34 34 29 30 28 24 25 25 21
84 84 81 76 74 68 67 67 63 62 60 54 53 55 54 54 49 45 40 40 41 39 38 37 36 40 37 34 32 36 37 32 34 38 37 38 38 35 33 25 24 27 26
79 86 84 78 74 70 72 72 64 61 57 54 56 56 53 50 49 42 41 39 40 41 38 35 36 39 40 37 35 33 39 38 35 37 40 36 38 40 39 32 25 26 31
76 86 87 82 77 70 74 70 63 61 57 54 54 51 49 48 43 39 42 37 42 39 35 33 37 42 40 40 37 35 37 39 36 37 41 39 38 41 44 39 27 30 32
74 86 86 83 76 71 69 65 63 60 56 56 52 47 47 41 41 42 42 41 40 33 33 38 41 42 41 41 39 35 37 41 35 38 40 45 37 42 45 41 31 31 33
64 78 79 81 80 73 67 64 63 59 56 50 49 47 38 41 43 42 41 43 41 37 42 43 43 42 43 40 38 36 37 40 39 36 37 41 38 38 48 44 37 35 34
Wind_Direction
281 282 283 287 289 291 292 293 294 295 297 299 301 302 302 303 302 298 294 288 284 277 272 269 263 264 258 258 261 257 257 255 252 246 244 253 252 253 255 258 258 261 260
280 281 284 287 289 291 292 292 293 295 297 299 302 302 302 301 299 299 296 289 283 271 264 264 257 260 264 254 255 264 260 252 246 240 229 239 247 249 258 257 259 260 266
278 281 282 284 287 289 291 292 293 295 297 299 300 300 300 300 298 293 293 291 282 271 258 252 247 238 244 247 244 242 256 254 241 233 226 238 242 244 248 256 257 262 264
277 278 281 284 287 288 290 291 292 293 295 296 298 296 299 297 297 294 290 287 279 262 248 241 239 236 235 237 233 245 237 254 249 238 225 228 237 247 253 255 260 260 264
273 276 279 280 283 286 286 288 288 290 291 292 291 291 294 297 298 297 294 290 280 266 242 237 236 236 232 234 235 232 242 244 238 241 239 242 248 255 263 265 268 269 270
272 273 276 278 278 280 281 282 283 283 284 285 287 290 294 296 300 300 296 295 285 263 242 237 232 231 233 232 232 242 250 240 246 242 246 251 256 260 258 261 273 291 289
269 271 272 272 273 273 275 277 276 273 275 278 285 288 297 300 300 303 299 294 283 264 246 237 238 230 237 238 237 232 245 241 245 243 249 248 257 254 262 280 296 303 303
265 264 264 265 266 268 269 268 268 267 271 275 284 286 294 306 302 302 300 297 289 269 259 244 240 236 241 241 242 245 249 253 243 245 254 259 260 267 272 273 297 310 310
257 254 259 260 261 263 263 264 265 264 270 273 280 286 291 312 305 303 303 298 295 286 263 256 244 240 234 238 245 250 250 248 254 257 261 262 272 274 283 288 298 309 310
250 246 252 256 259 260 257 260 261 263 265 272 275 281 284 303 309 305 305 303 297 294 280 269 253 243 243 244 247 256 254 258 257 259 263 260 268 278 283 286 293 300 305
249 244 244 252 255 256 256 257 259 260 264 264 273 276 282 296 309 304 303 306 306 303 294 279 271 256 241 248 254 262 263 262 263 270 271 270 275 280 285 286 291 297 299
247 251 242 250 253 256 257 257 258 259 262 261 268 271 278 287 304 307 301 301 309 306 307 290 273 266 258 248 244 248 260 265 268 268 270 275 278 282 282 288 290 291 294
237 250 240 247 252 254 256 256 258 259 260 260 265 270 275 283 299 303 300 299 314 310 312 299 282 272 261 255 262 257 257 256 260 262 268 271 275 278 285 282 279 286 278
239 244 238 240 247 251 255 256 259 256 256 259 263 270 273 280 296 301 300 302 311 321 316 309 290 272 267 261 259 261 260 261 266 267 266 272 277 274 270 268 273 269 271
240 238 246 237 242 247 252 256 257 253 256 260 263 272 271 275 289 298 301 295 301 316 314 321 304 272 266 265 259 262 266 263 266 265 269 267 259 259 260 259 265 266 269
237 237 241 239 237 242 247 252 255 256 261 263 261 267 260 273 286 291 297 293 293 302 317 319 323 286 266 265 262 258 265 264 262 262 271 273 266 258 261 257 260 266 274
234 237 234 241 236 236 240 245 251 256 260 259 260 263 259 272 283 286 291 294 290 290 309 314 323 310 268 263 264 266 254 252 257 250 251 259 253 257 257 262 268 273 275
231 234 236 234 239 235 239 242 246 251 257 251 258 255 261 273 280 282 290 286 289 291 289 311 319 323 287 267 267 267 266 259 251 255 253 259 251 260 267 274 278 270 268
223 232 232 234 234 237 239 240 243 249 254 251 255 256 262 270 276 281 285 284 285 283 285 295 306 317 312 270 265 267 262 260 257 244 253 255 257 258 270 277 273 270 275
220 225 228 232 234 235 239 238 239 243 248 247 252 256 258 267 271 276 281 284 282 283 281 281 296 306 313 283 261 264 266 261 256 255 254 249 248 253 264 271 276 272 273
220 216 226 229 232 234 235 239 241 239 242 246 253 256 261 264 267 274 278 281 278 278 280 279 279 295 304 302 266 258 258 265 257 254 252 254 249 249 255 263 282 266 260
216 213 219 226 230 234 236 237 238 239 242 247 252 255 255 259 265 271 273 277 276 275 277 278 283 281 294 294 282 256 255 255 260 254 250 249 253 251 255 252 263 273 260
214 212 214 220 225 228 234 239 239 240 243 248 249 251 252 258 264 266 270 271 274 277 275 277 283 280 290 288 285 261 251 253 254 258 248 250 250 250 250 250 261 265 264
213 211 210 216 221 223 231 236 239 241 241 243 247 250 254 256 260 264 268 263 271 274 275 277 286 287 287 287 281 274 249 251 250 258 253 246 244 244 244 246 251 261 264
214 211 209 212 218 221 227 234 237 238 241 242 248 252 253 256 262 262 263 260 266 266 281 288 283 283 282 280 279 274 251 247 251 256 258 249 250 246 242 247 243 257 262
213 208 210 212 216 217 222 229 234 235 238 240 243 242 251 258 258 257 257 260 259 262 287 285 285 279 281 277 277 276 253 245 249 259 256 245 247 253 242 243 243 253 260
Height
10830 10829 10828 10828 10827 10825 10823 10821 10819 10816 10815 10814 10813 10810 10807 10806 10805 10802 10800 10799 10798 10795 10793 10791 10789 10790 10790 10789 10792 10795 10797 10801 10803 10809 10810 10807 10804 10803 10800 10805 10805 10803 10805
10820 10820 10820 10819 10819 10817 10815 10814 10811 10809 10807 10806 10804 10802 10800 10798 10797 10792 10790 10790 10790 10787 10786 10784 10784 10783 10783 10783 10783 10787 10787 10790 10793 10797 10800 10794 10793 10794 10791 10794 10794 10794 10798
10812 10813 10813 10812 10811 10809 10807 10805 10803 10801 10799 10798 10796 10794 10792 10790 10788 10786 10783 10782 10780 10779 10778 10776 10777 10777 10778 10775 10777 10778 10781 10782 10784 10788 10789 10790 10787 10786 10786 10787 10788 10787 10790
10802 10804 10803 10804 10803 10801 10799 10797 10795 10794 10792 10791 10787 10786 10784 10784 10780 10779 10777 10774 10773 10771 10771 10770 10771 10771 10771 10769 10766 10770 10773 10777 10780 10783 10784 10783 10781 10781 10782 10782 10783 10783 10783
10792 10794 10794 10794 10794 10793 10792 10790 10787 10786 10786 10784 10781 10779 10778 10776 10773 10771 10770 10768 10766 10765 10765 10765 10765 10765 10766 10765 10761 10762 10767 10771 10775 10777 10778 10778 10778 10778 10778 10779 10779 10778 10776
10784 10785 10785 10785 10785 10784 10784 10783 10781 10781 10780 10778 10776 10774 10771 10769 10767 10764 10763 10762 10760 10758 10757 10759 10759 10759 10760 10761 10755 10757 10758 10763 10768 10769 10770 10772 10773 10773 10771 10773 10773 10772 10771
10771 10773 10774 10773 10774 10776 10775 10775 10774 10774 10773 10772 10770 10769 10766 10762 10760 10758 10756 10756 10752 10750 10751 10752 10752 10754 10754 10753 10750 10747 10748 10757 10759 10763 10763 10765 10766 10765 10766 10767 10766 10764 10764
10758 10762 10762 10762 10763 10766 10767 10766 10766 10766 10765 10765 10763 10762 10761 10758 10755 10752 10750 10749 10746 10744 10743 10744 10745 10747 10746 10747 10745 10746 10747 10749 10752 10757 10758 10760 10761 10760 10759 10759 10758 10757 10755
10745 10752 10749 10752 10753 10755 10758 10758 10758 10758 10758 10758 10757 10756 10755 10752 10750 10746 10743 10743 10740 10738 10735 10735 10736 10739 10741 10739 10740 10740 10741 10743 10747 10751 10753 10754 10754 10753 10752 10751 10751 10749 10747
10730 10739 10740 10741 10742 10745 10748 10750 10750 10750 10751 10751 10750 10749 10750 10747 10745 10741 10737 10735 10733 10731 10729 10727 10726 10730 10731 10733 10733 10733 10735 10738 10740 10743 10745 10746 10747 10746 10745 10745 10744 10743 10742
10713 10722 10729 10730 10731 10734 10736 10739 10740 10742 10743 10744 10743 10743 10743 10742 10740 10738 10734 10729 10725 10725 10722 10719 10717 10720 10723 10724 10724 10725 10727 10731 10733 10734 10736 10738 10741 10739 10739 10739 10738 10737 10735
10705 10705 10719 10719 10722 10722 10725 10728 10730 10733 10734 10736 10736 10736 10736 10736 10734 10733 10730 10725 10722 10719 10716 10714 10711 10711 10713 10717 10719 10720 10721 10722 10727 10728 10729 10731 10734 10732 10732 10732 10730 10729 10728
10694 10690 10706 10708 10710 10711 10713 10717 10721 10723 10725 10727 10728 10728 10728 10729 10728 10726 10724 10721 10719 10716 10713 10709 10707 10705 10707 10709 10711 10712 10714 10717 10721 10721 10722 10723 10724 10722 10724 10724 10723 10721 10719
10684 10680 10692 10697 10696 10701 10703 10705 10711 10714 10717 10718 10719 10720 10721 10721 10720 10720 10719 10715 10712 10710 10708 10704 10702 10701 10702 10705 10705 10705 10707 10709 10711 10713 10713 10716 10716 10715 10715 10715 10714 10713 10711
10671 10671 10673 10682 10685 10690 10692 10695 10699 10704 10707 10709 10711 10712 10712 10714 10714 10713 10713 10710 10708 10705 10703 10700 10698 10697 10698 10699 10702 10699 10700 10703 10703 10706 10707 10707 10707 10708 10709 10708 10707 10706 10705
10655 10657 10658 10664 10672 10678 10681 10685 10688 10693 10697 10700 10703 10703 10704 10705 10706 10706 10706 10705 10703 10701 10699 10696 10693 10691 10693 10694 10696 10696 10695 10696 10697 10700 10701 10701 10701 10702 10703 10702 10699 10699 10700
10640 10640 10644 10647 10658 10664 10669 10674 10677 10682 10688 10690 10693 10695 10695 10696 10698 10699 10698 10698 10696 10696 10694 10691 10688 10685 10685 10688 10689 10691 10691 10692 10692 10695 10696 10695 10695 10696 10696 10695 10694 10694 10694
10621 10627 10628 10631 10640 10651 10655 10661 10667 10672 10677 10681 10684 10686 10687 10687 10688 10690 10690 10690 10689 10688 10688 10686 10684 10681 10679 10681 10682 10683 10684 10686 10686 10687 10689 10689 10690 10691 10691 10690 10690 10690 10689
10596 10607 10614 10618 10627 10636 10642 10650 10657 10663 10667 10670 10673 10677 10678 10678 10678 10681 10682 10682 10682 10682 10681 10681 10679 10677 10676 10675 10677 10677 10678 10680 10680 10681 10683 10684 10685 10687 10687 10686 10685 10684 10684
10570 10585 10597 10605 10612 10620 10628 10639 10647 10652 10656 10659 10662 10667 10669 10669 10670 10671 10673 10674 10674 10674 10674 10674 10673 10672 10672 10670 10671 10671 10672 10674 10674 10674 10676 10678 10679 10681 10682 10681 10680 10680 10680
10548 10565 10580 10591 10599 10606 10617 10625 10631 10639 10643 10649 10653 10656 10659 10660 10661 10662 10663 10663 10665 10666 10666 10667 10667 10666 10665 10664 10663 10666 10666 10667 10668 10669 10669 10671 10673 10675 10676 10677 10676 10677 10677
10528 10545 10560 10575 10583 10594 10603 10608 10617 10622 10630 10637 10642 10643 10647 10649 10652 10654 10653 10653 10654 10657 10658 10658 10659 10658 10658 10657 10655 10657 10658 10660 10661 10663 10662 10664 10666 10668 10671 10672 10672 10672 10673
10511 10529 10542 10558 10567 10580 10586 10588 10605 10613 10620 10628 10626 10629 10636 10639 10641 10643 10642 10643 10644 10646 10649 10649 10650 10650 10649 10648 10646 10647 10649 10651 10653 10654 10655 10656 10659 10661 10664 10665 10667 10667 10668
10494 10506 10522 10538 10551 10565 10572 10581 10592 10600 10608 10613 10615 10620 10624 10628 10629 10632 10632 10634 10635 10637 10638 10640 10641 10640 10640 10639 10637 10638 10640 10641 10644 10644 10646 10648 10650 10652 10655 10658 10660 10661 10661
10475 10490 10507 10524 10536 10551 10563 10571 10578 10588 10594 10601 10605 10609 10613 10615 10618 10620 10622 10624 10626 10628 10628 10630 10631 10631 10630 10630 10628 10628 10629 10631 10635 10635 10637 10639 10641 10643 10647 10650 10653 10654 10655
10472 10483 10501 10517 10526 10538 10549 10558 10565 10575 10583 10589 10595 10600 10602 10604 10607 10610 10612 10614 10617 10619 10619 10621 10622 10622 10621 10619 10618 10617 10619 10622 10624 10627 10627 10631 10633 10635 10637 10642 10645 10647 10648